Regional Weather Roundup
Issued by NWS Northern Indiana

Home | Current Version | Previous Version | Graphics & Text | Print | Product List | Glossary On
Versions: 1 2 3 4 5 6 7 8 9 10 11 12 13 14 15 16 17 18 19 20 21 22 23 24 25 26 27 28 29 30 31 32 33 34 35 36 37 38 39 40 41 42 43 44 45 46 47 48 49 50
000
ASUS43 KIWX 032210
RWRIWX

KIWX WEATHER ROUNDUP
NATIONAL WEATHER SERVICE NORTHERN INDIANA
600 PM EDT MON AUG 03 2015

NOTE: "FAIR" INDICATES FEW OR NO CLOUDS BELOW 12,000 FEET WITH NO
SIGNIFICANT WEATHER AND/OR OBSTRUCTIONS TO VISIBILITY.

* THESE STATIONS ARE NOT UNDER NWS QUALITY CONTROL. THEY ALSO MAY NOT
  REPORT WEATHER SUCH AS PRECIPITATION OR FOG.

INZ001>027-032300-
NORTHERN INDIANA

CITY           SKY/WX    TMP DP  RH WIND       PRES   REMARKS
GARY*          SUNNY     79  52  38 NE8       29.86S
VALPARAISO     SUNNY     79  56  45 N5        29.86S
MICHIGAN CITY* SUNNY     75  50  41 N6        29.87R
LAPORTE*       SUNNY     79  53  41 N10       29.87S
KNOX*          SUNNY     77  57  50 N9        29.85S
SOUTH BEND     SUNNY     79  48  33 NW13      29.86S
ELKHART*       SUNNY     77  46  33 NW13G18   29.86S
GOSHEN         SUNNY     77  54  44 NW13      29.85S
MONTICELLO*    SUNNY     82  61  49 W10       29.84S
LOGANSPORT*    SUNNY     81  52  36 NW8       29.85S
ROCHESTER*     SUNNY     82  61  47 NW9       29.85S
WARSAW*        SUNNY     79  59  50 NW12      29.85S
ANGOLA*        SUNNY     79  54  41 NW14      29.84R
FORT WAYNE     MOSUNNY   81  60  48 NW8       29.84R
HUNTINGTON*    SUNNY     80  60  49 NW9       29.84R
PERU/GRISSOM   SUNNY     83  59  42 W12       29.83S
MARION*        PTSUNNY   80  61  52 W13       29.85S

$$
INZ028>050-032300-
CENTRAL INDIANA

CITY           SKY/WX    TMP DP  RH WIND       PRES   REMARKS
LAFAYETTE      MOSUNNY   82  62  50 NW13      29.84S
KOKOMO*        MOSUNNY   82  63  51 NW13      29.84S
MUNCIE*        SUNNY     80  63  55 NW15      29.84S
INDIANAPOLIS   PTSUNNY   86  66  51 W21       29.84R

$$
MIZ043>046-050>051-056>058-064>065-071>073-077>080-032300-
SOUTHWEST LOWER MICHIGAN

CITY           SKY/WX    TMP DP  RH WIND       PRES   REMARKS
BATTLE CREEK     N/A    N/A N/A N/A MISG      29.85R
BENTON HARBOR  SUNNY     75  54  47 W7        29.86R
COLDWATER*     SUNNY     75  46  35 NW14G22   29.84S
HILLSDALE*     SUNNY     77  51  39 NW15G22   29.83S
HOLLAND        SUNNY     75  51  43 W9        29.85R
GRAND RAPIDS   MOSUNNY   76  49  38 W16       29.83S
KALAMAZOO      SUNNY     77  48  35 W12G22    29.85R
STURGIS*       SUNNY     75  52  43 W10G18    29.85S
THREE RIVERS*  FAIR      76  49  38 NW16      29.86R

$$
OHZ001>008-015>018-024>025-032300-
NORTHWEST OHIO

CITY           SKY/WX    TMP DP  RH WIND       PRES   REMARKS
WAUSEON*       FAIR      79  61  53 NW12G20   29.81R
DEFIANCE       SUNNY     81  59  47 W10G18    29.81R
FINDLAY        SUNNY     83  63  50 W10       29.79F
TOLEDO EXPRESS MOSUNNY   81  57  43 W14       29.79R
TOLEDO METCALF MOSUNNY   82  59  45 W15       29.79S
LIMA           MOSUNNY   81  60  48 W15       29.82F

$$
AND FOR LAKE MICHIGAN COASTAL AND OPEN LAKE BUOY OBSERVATIONS

STATION/POSITION TEMP    WIND        PRES    VSBY  WAVE
                 AIR SEA DIR/SP/G                  HT/PER
                 (F)     (DEG/KT/KT) (MB)    (MI)  (FT/S)
CALUMET HARBOR    75      70/  6/  9   N/A
MICHIGAN CITY     77     340/  5/  6   N/A
BURNS HARBOR      74      30/  5/  7 1011.5S
SAINT JOSEPH      77     260/  5/  7 1011.9F
4 MI NW BRIDGMAN  74 73   10/ 10/ 12   N/A           2/ 4
MICHIGAN CITY     74 75   10/  6/  8   N/A           2/ 4
MICHIGAN CITY CG  76 75   20/  4       N/A       6   2

$$
&&



USA.gov is the U.S. government's official web portal to all federal, state and local government web resources and services.